Location: Coffee Ditch
(40.9640°N, 122.7500°W)
Time: 09:33:56
(UTC+00:00)

Cosmos 1602 Rocket - Pass Details

Date: 17 December 2025
Orbit: 596 x 626 km, 82.5° (Epoch: 14 January)

Event Time Altitude Azimuth Distance (km) Brightness Sun altitude
Rises 02:09:01 0° 328° (NNW) 2,877 7.2 -15.4°
Reaches altitude 10° 02:12:48 10° 295° (WNW) 1,958 6.8 -16.1°
Maximum altitude 02:14:07 11° 277° (W) 1,869 7.0 -16.3°
Drops below altitude 10° 02:15:27 10° 259° (WSW) 1,948 7.4 -16.6°
Sets 02:19:11 0° 225° (SW) 2,837 8.0 -17.3°
